Weather History for Jordan, MT

Change the Weather History Date:

Wednesday, June 26, 2013

  Actual Average Record
Temperature  
Mean Temperature 69 °F 66 °F  
Max Temperature 81 °F 81 °F 108 °F (1988)
Min Temperature 56 °F 51 °F 37 °F (1952)
Degree Days  
Heating Degree Days 0 2  
Month to date heating degree days 95 117  
Since 1 June heating degree days 95 117  
Since 1 July heating degree days 7701 8238  
Cooling Degree Days 4 3  
Month to date cooling degree days 30 38  
Year to date cooling degree days 42 44  
Since 1 June cooling degree days 30 38  
Growing Degree Days 18 (Base 50)    
Moisture  
Dew Point 53 °F    
Average Humidity 63    
Maximum Humidity 93    
Minimum Humidity 33    
Precipitation  
Precipitation 0.00 in 0.07 in 0.95 in (1975)
Month to date precipitation 4.06 2.26  
Year to date precipitation 11.02 6.63  
Snow  
Snow 0.00 in - - ()
Month to date snowfall 0.0  
Since 1 June snowfall 0.0  
Since 1 July snowfall 0.0  
Snow Depth 0.00 in    
Sea Level Pressure  
Sea Level Pressure 29.87 in    
Wind  
Wind Speed 9 mph (WNW)    
Max Wind Speed 25 mph    
Max Gust Speed 30 mph    
T = Trace of Precipitation, MM = Missing Value Source: NWS Daily Summary

Daily Weather History Graph

Daily Weather History Graph

Search for Another Location

Airport:

Trip Planner

Search our weather history database for the weather conditions in past years. The results will help you decide how hot, cold, wet, or windy it might be!

Date:

Astronomy

Jun. 26, 2013 Rise Set
Actual Time 5:12 AM MDT 9:08 PM MDT
Civil Twilight 4:32 AM MDT 9:48 PM MDT
Nautical Twilight 3:37 AM MDT 10:43 PM MDT
Astronomical Twilight 2:11 AM MDT 12:08 AM MDT
Moon 11:13 PM MDT (6/26) 9:24 AM MDT (6/26)
Length of Visible Light 17h 15m
Length of Day
15h 55m
Waning Gibbous, 85% of the Moon is Illuminated
Jun 26
Waning Gibbous
Jun 29
Last Quarter
Jul 8
New
Jul 15
First Quarter
Jul 22
Full

Hourly Weather History & Observations

Time (MDT) Temp. Dew Point Humidity Pressure Visibility Wind Dir Wind Speed Gust Speed Precip Events Conditions
12:48 AM 60.1 °F 55.9 °F 86% 29.76 in - Calm Calm - N/A   Unknown
1:48 AM 57.9 °F 55.9 °F 93% 29.77 in - Calm Calm - N/A   Unknown
2:48 AM 60.1 °F 57.9 °F 93% 29.77 in - WNW 4.6 mph - N/A   Unknown
3:48 AM 61.0 °F 57.0 °F 87% 29.77 in - WNW 9.2 mph - N/A   Unknown
4:48 AM 60.1 °F 55.9 °F 86% 29.79 in - West 6.9 mph - N/A   Unknown
5:48 AM 60.1 °F 54.0 °F 80% 29.81 in - WNW 6.9 mph - N/A   Unknown
7:48 AM 64.0 °F 55.9 °F 75% 29.84 in - West 6.9 mph - N/A   Unknown
8:48 AM 69.1 °F 55.9 °F 63% 29.85 in - West 6.9 mph - N/A   Unknown
9:48 AM 73.9 °F 53.1 °F 48% 29.86 in - WNW 17.3 mph - N/A   Unknown
10:48 AM 73.9 °F 51.1 °F 45% 29.87 in - WNW 11.5 mph 21.9 mph N/A   Unknown
11:48 AM 77.0 °F 51.1 °F 40% 29.88 in - WNW 13.8 mph 21.9 mph N/A   Unknown
12:48 PM 78.1 °F 51.1 °F 39% 29.88 in - WNW 13.8 mph 24.2 mph N/A   Unknown
1:48 PM 78.1 °F 52.0 °F 40% 29.89 in - WNW 16.1 mph 23.0 mph N/A   Unknown
2:48 PM 80.1 °F 50.0 °F 35% 29.89 in - West 19.6 mph 26.5 mph N/A   Unknown
3:48 PM 80.1 °F 48.0 °F 32% 29.89 in - WNW 18.4 mph 25.3 mph N/A   Unknown
4:48 PM 80.1 °F 48.9 °F 34% 29.89 in - West 12.7 mph - N/A   Unknown
5:48 PM 79.0 °F 48.0 °F 34% 29.90 in - WNW 15.0 mph - N/A   Unknown
6:48 PM 75.9 °F 48.0 °F 37% 29.91 in - West 9.2 mph - N/A   Unknown
7:48 PM 73.9 °F 48.9 °F 41% 29.92 in - NNW 9.2 mph - N/A   Unknown
8:48 PM 66.9 °F 53.1 °F 61% 29.94 in - NNW 8.1 mph - N/A   Unknown
9:48 PM 61.0 °F 55.0 °F 81% 29.97 in - Calm Calm - N/A   Unknown
10:48 PM 59.0 °F 54.0 °F 83% 29.99 in - Calm Calm - N/A   Unknown
11:48 PM 57.0 °F 54.0 °F 89% 30.01 in - WNW 4.6 mph - N/A   Unknown